User: anonymous   Login
Location: Muenchen
(48.1800°N, 11.5800°E)
Time: 22:17:28
(UTC+02:00)
Language:

Sich 1 Rocket - Orbit

View from above orbital plane
View from above orbital plane
View from above satellite
View from above satellite

Ground track
Ground track

The orbit data is extracted from the following two-line orbital elements,

1 23659U 95046C   16178.78266532  .00000110  00000-0  12040-4 0  9994
2 23659  82.5315 275.2007 0024638 319.1667 154.6873 14.78191221122049
Epoch (UTC): 26 June 2016 18:47:02
Eccentricity: 0.0024638
inclination: 82.5315°
perigee height: 618 km
apogee height: 652 km
right ascension of ascending node: 275.2007°
argument of perigee: 319.1667°
revolutions per day: 14.78191221
mean anomaly at epoch: 154.6873°
orbit number at epoch: 12204

The dashed part of the orbit path shows where the satellite is in the earth's shadow,  

DLR